{"data":{"norad_id":63022,"intl_designator":"2025-032T","name":"STARLINK-32944","alt_names":[],"object_type":"PAYLOAD","status":"ACTIVE","operator":null,"country":"US","launch_date":"2025-02-15","launch_site_code":"AFETR","launch_vehicle":null,"mission":null,"orbit_class":"UNKNOWN","rcs_meters":null,"size_class":null,"mass_kg":null,"dimensions":null,"purposes":["comms"],"wikipedia_slug":null,"has_3d_model":false,"image_url":null,"decayed_at":null,"tle_current":{"epoch":"2026-05-24T17:22:08.239008Z","epoch_age_seconds":109476,"freshness":"FRESH","line1":"1 63022U 25032T   26144.72370647  .00008358  00000+0  31272-3 0  9999","line2":"2 63022  43.0024 267.0692 0001189 273.7068  86.3647 15.27598561 72240","mean_motion":15.27598561,"eccentricity":0.0001189,"inclination_deg":43.0024,"raan_deg":267.0692,"arg_perigee_deg":273.7068,"mean_anomaly_deg":86.3647,"bstar":0.00031272,"rev_number":7224,"period_min":94.265603330848,"perigee_km":482.17772987249,"apogee_km":483.80930670974,"semimajor_km":6861.1305182911,"source":"CELESTRAK","updated_at":"2026-05-25T13:38:19.862950Z"}}}